This is the latest recevied weather packets stored in our database for station/object KI4FRU. If no packets are shown the sender has not sent any weather packets the latest 10 day(s).
| Time | Temp. | Humidity | Pressure | Rain* | Wind** | Luminosity | Snow |
|---|---|---|---|---|---|---|---|
| 1777815318 | 11.11° C | 70% | 1059.2 hPa | 0 mm | - | 27 W/m² | - |
| 1777815015 | 11.11° C | 76% | 1059.4 hPa | 0 mm | - | 24 W/m² | - |
| 1777814711 | 11.11° C | 73% | 1059.3 hPa | 0 mm | - | 27 W/m² | - |
| 1777814408 | 10.56° C | 72% | 1059.3 hPa | 0 mm | - | 28 W/m² | - |
| 1777814105 | 10.56° C | 80% | 1059.3 hPa | 0 mm | - | 27 W/m² | - |
| 1777813801 | 10.56° C | 83% | 1059.3 hPa | 0 mm | - | 27 W/m² | - |
| 1777813499 | 10.56° C | 82% | 1059.4 hPa | 0 mm | - | 26 W/m² | - |
| 1777813196 | 10° C | 81% | 1059.4 hPa | 0 mm | - | 27 W/m² | - |
| 1777812894 | 9.44° C | 85% | 1059.2 hPa | 0 mm | - | 28 W/m² | - |
| 1777812590 | 8.89° C | 94% | 1059.3 hPa | 0 mm | - | 26 W/m² | - |
| 1777812288 | 8.33° C | 99% | 1059.5 hPa | 0 mm | - | 26 W/m² | - |
| 1777811986 | 7.22° C | 99% | 1059.3 hPa | 0 mm | - | 26 W/m² | - |
| 1777811684 | 7.22° C | 99% | 1059.5 hPa | 0 mm | - | 25 W/m² | - |
| 1777811380 | 7.22° C | 99% | 1059.2 hPa | 0 mm | - | 24 W/m² | - |
| 1777811077 | 6.67° C | 99% | 1059.1 hPa | 0 mm | - | 25 W/m² | - |
| 1777810774 | 6.11° C | 99% | 1059.2 hPa | 0 mm | - | 24 W/m² | - |
| 1777810471 | 5.56° C | 99% | 1059 hPa | 0 mm | - | 24 W/m² | - |
| 1777810167 | 5.56° C | 99% | 1059.1 hPa | 0 mm | - | 28 W/m² | - |
| 1777809864 | 5° C | 99% | 1059 hPa | 0 mm | - | 28 W/m² | - |
| 1777809562 | 4.44° C | 99% | 1058.9 hPa | 0 mm | - | 22 W/m² | - |
| 1777809260 | 4.44° C | 99% | 1058.8 hPa | 0 mm | - | 20 W/m² | - |
| 1777808957 | 3.89° C | 99% | 1059 hPa | 0 mm | - | 19 W/m² | - |
| 1777808654 | 3.33° C | 99% | 1058.9 hPa | 0 mm | - | 18 W/m² | - |
| 1777808351 | 3.33° C | 99% | 1058.6 hPa | 0 mm | - | 17 W/m² | - |
| 1777808050 | 2.78° C | 99% | 1058.7 hPa | 0 mm | - | 16 W/m² | - |
* Rain latest hour (hover to see other rain measurements)
** Current wind speed in m/s (hover to see current wind gust speed)